Tucson, AZ

3:35 PM MST on June 24, 2017 (GMT -0700)
Tucson International

Weather History for KTUS - February, 2012

Change the Weather History Date:

Tuesday, February 7, 2012

  Actual Average Record
Temperature  
Mean Temperature 58 °F 54 °F  
Max Temperature 76 °F 68 °F 84 °F (1963)
Min Temperature 39 °F 41 °F 17 °F (1899)
Degree Days  
Heating Degree Days 7 11  
Month to date heating degree days 78 77  
Since 1 July heating degree days 1045 1071  
Cooling Degree Days 0 0  
Month to date cooling degree days 0 0  
Year to date cooling degree days 2 1  
Growing Degree Days 8 (Base 50)    
Moisture  
Dew Point 26 °F    
Average Humidity 35    
Maximum Humidity 51    
Minimum Humidity 18    
Precipitation  
Precipitation 0.00 in 0.03 in 1.26 in (1966)
Month to date precipitation 0.00 0.23  
Year to date precipitation 0.14 1.17  
Snow  
Snow 0.00 in - - ()
Month to date snowfall 0.0  
Snow Depth 0.00 in    
Sea Level Pressure  
Sea Level Pressure 29.96 in    
Wind  
Wind Speed 4 mph (SE)    
Max Wind Speed 10 mph    
Max Gust Speed 17 mph    
Visibility 10 miles    
Events      
T = Trace of Precipitation, MM = Missing Value Source: NWS Daily Summary

Daily Weather History Graph

Daily Weather History Graph

Search for Another Location

Airport or City:

Trip Planner

Search our weather history database for the weather conditions in past years. The results will help you decide how hot, cold, wet, or windy it might be!

Date:

Astronomy

Feb. 07, 2012 Rise Set
Actual Time 7:13 AM MST 6:02 PM MST
Civil Twilight 6:48 AM MST 6:28 PM MST
Nautical Twilight 6:19 AM MST 6:57 PM MST
Astronomical Twilight 5:50 AM MST 7:25 PM MST
Moon 6:13 PM MST (2/7) 6:46 AM MST (2/7)
Length of Visible Light 11h 39m
Length of Day
10h 49m
Full, 100% of the Moon is Illuminated
Feb 7
Full
Feb 7
Full
Feb 14
Last Quarter
Feb 21
New
Feb 29
First Quarter

Hourly Weather History & Observations

Time (MST) Temp. Windchill Dew Point Humidity Pressure Visibility Wind Dir Wind Speed Gust Speed Precip Events Conditions
12:53 AM 43.0 °F 40.3 °F 23.0 °F 45% 30.01 in 10.0 mi ESE 4.6 mph - N/A   Clear
1:53 AM 44.1 °F 41.5 °F 24.1 °F 45% 30.00 in 10.0 mi ESE 4.6 mph - N/A   Clear
2:53 AM 42.1 °F 38.4 °F 24.1 °F 49% 30.00 in 10.0 mi SSE 5.8 mph - N/A   Clear
3:53 AM 41.0 °F 39.0 °F 24.1 °F 51% 30.00 in 10.0 mi SE 3.5 mph - N/A   Clear
4:53 AM 41.0 °F - 24.1 °F 51% 30.01 in 10.0 mi Calm Calm - N/A   Clear
5:53 AM 45.0 °F 40.6 °F 23.0 °F 42% 30.00 in 10.0 mi SE 8.1 mph - N/A   Clear
6:53 AM 44.1 °F 40.8 °F 24.1 °F 45% 30.01 in 10.0 mi SE 5.8 mph - N/A   Clear
7:53 AM 44.1 °F 40.1 °F 25.0 °F 47% 30.03 in 10.0 mi SE 6.9 mph - N/A   Clear
8:53 AM 51.1 °F - 25.0 °F 36% 30.03 in 10.0 mi East 3.5 mph - N/A   Clear
9:53 AM 57.9 °F - 24.1 °F 27% 30.02 in 10.0 mi SE 8.1 mph - N/A   Clear
10:53 AM 64.9 °F - 25.0 °F 22% 30.00 in 10.0 mi ESE 8.1 mph - N/A   Clear
11:53 AM 70.0 °F - 25.0 °F 18% 29.98 in 10.0 mi SSE 9.2 mph - N/A   Clear
12:53 PM 72.0 °F - 28.0 °F 20% 29.94 in 10.0 mi SE 4.6 mph - N/A   Clear
1:53 PM 73.0 °F - 28.9 °F 20% 29.91 in 10.0 mi Variable 5.8 mph - N/A   Clear
2:53 PM 73.9 °F - 28.9 °F 19% 29.88 in 10.0 mi Calm Calm - N/A   Clear
3:53 PM 75.0 °F - 28.0 °F 18% 29.87 in 10.0 mi East 4.6 mph - N/A   Clear
4:53 PM 75.0 °F - 28.0 °F 18% 29.86 in 10.0 mi Variable 4.6 mph - N/A   Clear
5:53 PM 73.0 °F - 28.0 °F 19% 29.86 in 10.0 mi Calm Calm - N/A   Clear
6:53 PM 69.1 °F - 28.9 °F 22% 29.89 in 10.0 mi Calm Calm - N/A   Overcast
7:53 PM 66.0 °F - 28.0 °F 24% 29.92 in 10.0 mi SW 4.6 mph - N/A   Clear
8:53 PM 64.0 °F - 28.9 °F 27% 29.93 in 10.0 mi Calm Calm - N/A   Clear
9:53 PM 60.1 °F - 28.9 °F 31% 29.94 in 10.0 mi WSW 5.8 mph - N/A   Clear
10:53 PM 60.1 °F - 28.0 °F 30% 29.94 in 10.0 mi WSW 4.6 mph - N/A   Partly Cloudy
11:53 PM 59.0 °F - 28.0 °F 31% 29.95 in 10.0 mi Calm Calm - N/A   Partly Cloudy